[[{"header":{"parameterUnit":"m.s-1","parameterCategory":1,"la1":30.2991,"la2":30.254,"lo1":-89.0895,"lo2":-89.0444,"dy":0.0017,"dx":0.0017,"nx":28,"ny":28,"refTime":"2023-08-07T09:00:00:Z","depth":0,"parameterNumber":2,"parameterNumberName":"U-component_of_WINDS"},"data":[0,0,0,0,0,0,0,0,0,0,0,0,0,0,0,0,0,0,0,0,0,0,0,0,0,0,0,0,0,0,0,0,0,0,0,0,0,0,0,0,0,0,0,0,0,0,0,0,0,0,0,0,0,0,0,0,0,0,5.5642,5.5643,0,5.5767,5.5768,5.577,5.5672,5.5668,5.5664,5.566,5.579,5.5797,5.5804,0,0,0,0,0,0,0,0,0,0,0,0,0,5.5317,5.5324,5.5642,5.5643,5.5645,5.5767,5.5769,5.577,5.5673,5.5668,5.5663,5.5658,5.5787,5.5796,5.5805,0,0,0,0,0,0,0,0,0,0,0,0,0,5.5452,5.5326,5.5641,5.5611,5.5609,5.5766,5.5769,5.5771,5.5674,5.5668,5.5662,5.5656,5.5784,5.5795,5.5806,5.6,0,0,5.584,5.5844,0,0,0,0,0,0,0,0,5.5445,5.5464,5.5614,5.5613,5.5612,5.5698,5.5702,5.5848,5.5676,5.565,5.566,5.5653,5.5764,5.5776,5.5814,5.6006,5.6011,5.5841,5.5847,5.5852,5.5855,0,0,0,0,0,0,0,5.5435,5.5458,5.5691,5.5616,5.5615,5.5591,5.5603,5.5729,5.5741,5.5651,5.5645,5.5661,5.5762,5.5803,5.5816,5.6013,5.584,5.585,5.5857,5.5861,5.6367,5.6374,0,0,0,0,0,0,5.5429,5.5451,5.5687,5.5695,5.5511,5.5602,5.5615,5.5676,5.5739,5.5742,5.5666,5.5656,5.5788,5.5803,5.582,5.6048,5.5852,5.5862,5.5869,5.636,5.6369,5.6376,0,0,0,0,0,0,5.5422,5.5451,5.5682,5.5571,5.5599,5.5614,5.5683,5.5682,5.5723,5.575,5.5752,5.5706,5.5783,5.5805,5.5955,5.6052,5.5867,5.5877,5.6352,5.6363,5.6372,5.6508,0,0,0,0,0,0,5.5414,5.5449,5.5523,5.5574,5.5605,5.5816,5.569,5.5689,5.5742,5.573,5.5788,5.5791,5.578,5.5939,5.5966,5.6063,5.5886,5.6344,5.6357,5.6369,5.6495,5.6522,5.6545,0,0,0,0,0,5.5402,5.5558,5.5528,5.5557,5.5698,5.5821,5.5839,5.5823,5.5751,5.5825,5.5841,5.5789,5.6037,5.5955,5.5985,5.6087,5.6337,5.6353,5.6368,5.6484,5.6517,5.6544,0,0,0,0,0,0,5.552,5.5564,5.5531,5.5708,5.5761,5.5805,5.5898,5.5858,5.5934,5.592,5.5896,5.591,5.6067,5.6093,5.6,5.6276,5.6176,5.6198,5.6254,5.6285,5.6309,5.6299,5.5895,0,0,0,0,0,5.5566,5.5662,5.5696,5.5848,5.5877,5.5883,5.5936,5.5919,5.5973,5.5996,5.6024,5.6079,5.6169,5.6229,5.6313,5.6499,5.6509,5.6584,5.6609,5.6629,5.6647,5.6744,5.6777,5.6426,5.6426,5.6426,0,0,5.5663,5.5699,5.5761,5.5873,5.5912,5.6011,5.5903,5.6013,5.6086,5.6013,5.6155,5.6178,5.6238,5.6406,5.6481,5.6432,5.6747,5.6648,5.6664,5.6672,5.6763,5.6797,5.6826,5.6437,5.6435,5.6433,0,0,5.5889,5.5927,5.6057,5.6098,5.6159,5.6162,5.6193,5.6242,5.6254,5.6396,5.6342,5.6429,5.6585,5.6629,5.6672,5.6913,5.6867,5.6942,5.707,5.7165,5.7193,5.7217,5.73,5.733,5.6961,5.6961,5.6961,0,5.6002,5.6149,5.6129,5.6242,5.6291,5.6229,5.6358,5.64,5.6486,5.6521,5.6465,5.6657,5.6694,5.6869,5.6927,5.6966,5.6999,5.6934,5.719,5.7214,5.7237,5.7316,5.7347,5.6969,5.6968,5.6968,5.6967,0,5.6283,5.6386,5.6483,5.6566,5.6627,5.6748,5.6745,5.6809,5.6786,5.6795,5.6939,5.6981,5.7071,5.7112,5.7092,5.7284,5.7251,5.7193,5.7091,5.7279,5.7352,5.7383,5.6981,5.6978,5.6976,5.6974,0,0,5.6586,5.6655,5.669,5.6726,5.6788,5.6867,5.6985,5.7072,5.7126,5.7187,5.7284,5.7417,5.7362,5.7411,5.7395,5.7479,5.7663,5.741,5.7411,5.7453,5.7874,5.7915,5.7951,5.7633,5.7639,5.7644,5.7868,0,5.6813,5.7017,5.7001,5.7194,5.7287,5.7228,5.7331,5.7379,5.739,5.7471,5.7483,5.7576,5.7499,5.7527,5.7608,5.7623,5.7747,5.7607,5.7721,5.7726,5.7705,5.7989,5.8034,5.8244,5.7897,5.7902,5.7905,0,5.7105,5.7174,5.7376,5.7421,5.7459,5.7552,5.7628,5.7707,5.776,5.7762,5.7816,5.7785,5.7902,5.7799,5.7959,5.7865,5.7911,5.7926,5.7933,5.7941,5.7825,5.8002,5.831,5.8341,5.7951,5.7947,5.7944,0,5.7302,5.7446,5.7584,5.7617,5.7674,5.7739,5.7766,5.7813,5.7866,5.7934,5.7967,5.8048,5.8092,5.8155,5.8147,5.8073,5.8309,5.8206,5.8312,5.8312,5.8363,5.8359,5.868,5.8397,5.8397,5.8396,5.8396,0,5.7555,5.768,5.7673,5.7758,5.7896,5.7876,5.8013,5.8032,5.8074,5.816,5.8116,5.8198,5.8183,5.8265,5.8259,5.8391,5.8412,5.8416,5.8412,5.8418,5.8417,5.8446,5.843,5.8405,5.8403,5.8401,5.84,0,5.7798,5.7799,5.7945,5.7986,5.7999,5.8099,5.8133,5.8213,5.8219,5.833,5.8354,5.8365,5.8459,5.8457,5.8565,5.856,5.8721,5.8703,5.8703,5.8698,5.8803,5.8792,5.9151,5.9196,5.8887,5.889,5.8893,0,5.7958,5.8052,5.8103,5.8157,5.8188,5.8277,5.8329,5.8314,5.837,5.8436,5.8508,5.8597,5.8668,5.882,5.8837,5.8919,5.89,5.902,5.8912,5.8913,5.8898,5.8891,5.8899,5.904,5.9044,5.9047,5.9049,0,5.8241,5.8236,5.8314,5.8392,5.8455,5.8516,5.8572,5.8619,5.8609,5.8675,5.8769,5.8824,5.8932,5.9021,5.9099,5.9125,5.9085,5.9083,5.9111,5.9117,5.9112,5.9113,5.8758,5.9074,5.9072,5.907,5.9069,5.9068,5.8445,5.8525,5.8572,5.866,5.8699,5.8752,5.8827,5.8843,5.8922,5.9008,5.8994,5.9099,5.9148,5.9247,5.9281,5.9363,5.932,5.9362,5.9372,5.9382,5.9392,5.9101,5.9377,5.9377,5.9376,5.9375,5.9375,0,5.8723,5.875,5.8831,5.8909,5.8977,5.8933,5.8992,5.9051,5.9144,5.9193,5.9263,5.937,5.9455,5.9479,5.956,5.9621,5.9604,5.9643,5.9637,5.9643,5.9427,5.9393,5.9655,5.9654,5.9654,5.9654,5.9654,5.9654,5.8876,5.9007,5.9008,5.9158,5.9184,5.9286,5.9323,5.937,5.9408,5.953,5.96,5.9614,5.9652,5.9736,5.9812,5.9816,5.9847,5.9892,5.9889,5.9687,5.9658,5.9632,5.9599,5.99,5.99,6.0097,6.0099,6.0101]},{"header":{"parameterUnit":"m.s-1","parameterCategory":1,"la1":30.2991,"la2":30.254,"lo1":-89.0895,"lo2":-89.0444,"dy":0.0017,"dx":0.0017,"nx":28,"ny":28,"refTime":"2023-08-07T09:00:00:Z","depth":0,"parameterNumber":3,"parameterNumberName":"V-component_of_WINDS"},"data":[0,0,0,0,0,0,0,0,0,0,0,0,0,0,0,0,0,0,0,0,0,0,0,0,0,0,0,0,0,0,0,0,0,0,0,0,0,0,0,0,0,0,0,0,0,0,0,0,0,0,0,0,0,0,0,0,0,0,2.4588,2.4589,0,2.4681,2.4682,2.4683,2.4688,2.4687,2.4686,2.4685,2.4778,2.4781,2.4785,0,0,0,0,0,0,0,0,0,0,0,0,0,2.4414,2.4417,2.4588,2.4589,2.4591,2.468,2.4682,2.4683,2.4688,2.4687,2.4686,2.4684,2.4777,2.4781,2.4785,0,0,0,0,0,0,0,0,0,0,0,0,0,2.4496,2.4418,2.4588,2.4604,2.4606,2.468,2.4682,2.4683,2.4688,2.4687,2.4685,2.4684,2.4775,2.4781,2.4786,2.4849,0,0,2.4802,2.4804,0,0,0,0,0,0,0,0,2.4491,2.4502,2.4601,2.4603,2.4606,2.4671,2.4654,2.4739,2.4689,2.4657,2.4685,2.4683,2.4744,2.4751,2.4772,2.4854,2.4858,2.4802,2.4805,2.4807,2.4809,0,0,0,0,0,0,0,2.4486,2.4498,2.4625,2.4602,2.4605,2.4606,2.4616,2.467,2.4708,2.466,2.466,2.4671,2.4745,2.4767,2.4774,2.4859,2.4802,2.4806,2.481,2.4812,2.4995,2.4997,0,0,0,0,0,0,2.4477,2.4494,2.4622,2.4628,2.4544,2.461,2.4621,2.4652,2.4708,2.4715,2.4673,2.4671,2.4759,2.4768,2.4778,2.4855,2.4807,2.4812,2.4815,2.4993,2.4996,2.4998,0,0,0,0,0,0,2.4473,2.4489,2.4618,2.4561,2.4577,2.4615,2.4649,2.4654,2.4677,2.4717,2.4724,2.4689,2.4758,2.477,2.4831,2.4858,2.4815,2.4819,2.4991,2.4994,2.4997,2.501,0,0,0,0,0,0,2.4468,2.4487,2.4513,2.4561,2.458,2.4671,2.4651,2.4657,2.4686,2.4685,2.4734,2.4741,2.4758,2.4823,2.4836,2.4864,2.4823,2.4989,2.4993,2.4996,2.5007,2.5012,2.5017,0,0,0,0,0,2.4462,2.4513,2.4514,2.4529,2.4613,2.4673,2.4683,2.4703,2.4688,2.4713,2.4739,2.4739,2.4853,2.4829,2.4844,2.4874,2.4988,2.4992,2.4995,2.5005,2.5011,2.5017,0,0,0,0,0,0,2.4466,2.452,2.4521,2.459,2.4627,2.4673,2.4706,2.4709,2.4751,2.4748,2.477,2.4781,2.484,2.4863,2.4836,2.4937,2.4918,2.4925,2.492,2.4927,2.4932,2.4925,2.4828,0,0,0,0,0,2.4475,2.452,2.4564,2.4619,2.4638,2.4669,2.4695,2.4707,2.4746,2.4761,2.4791,2.4829,2.4872,2.4901,2.4944,2.501,2.502,2.5038,2.5043,2.5047,2.5052,2.5087,2.5095,2.5011,2.501,2.501,0,0,2.4494,2.4529,2.4556,2.4621,2.4651,2.4696,2.4682,2.473,2.4763,2.4768,2.4827,2.4851,2.4893,2.4957,2.4986,2.4978,2.5078,2.5052,2.5055,2.5058,2.5092,2.51,2.5107,2.5013,2.5013,2.5012,0,0,2.4551,2.4582,2.4631,2.4661,2.4707,2.4727,2.4738,2.4784,2.48,2.4859,2.4864,2.4903,2.4978,2.5008,2.5033,2.5099,2.51,2.5112,2.5138,2.5172,2.5179,2.5185,2.5207,2.5215,2.5118,2.5118,2.5118,0,2.4569,2.4637,2.4656,2.4704,2.4732,2.4739,2.4787,2.4815,2.4872,2.4891,2.4881,2.4974,2.5004,2.5073,2.5089,2.511,2.5122,2.5107,2.5176,2.5182,2.5188,2.521,2.5218,2.5119,2.5119,2.5119,2.5119,0,2.4655,2.4702,2.4736,2.4791,2.4822,2.4871,2.4896,2.4926,2.4934,2.4954,2.5013,2.5049,2.5098,2.5115,2.5124,2.5185,2.5178,2.5172,2.5153,2.5197,2.5217,2.5226,2.5121,2.512,2.512,2.512,0,0,2.4719,2.4782,2.4794,2.4818,2.4868,2.4904,2.4951,2.4999,2.5024,2.5062,2.5101,2.5164,2.5158,2.5186,2.5198,2.5228,2.5275,2.5217,2.5219,2.5226,2.5344,2.5347,2.5357,2.5276,2.5278,2.5279,2.5339,0,2.478,2.4866,2.4884,2.4957,2.4999,2.5005,2.5046,2.508,2.51,2.5138,2.516,2.5204,2.5193,2.521,2.5239,2.5263,2.5299,2.5259,2.5312,2.5314,2.5301,2.5368,2.5373,2.5428,2.5348,2.5349,2.535,0,2.4864,2.4904,2.4982,2.5024,2.5042,2.5079,2.5123,2.516,2.5198,2.521,2.5241,2.5249,2.5297,2.5276,2.5341,2.5314,2.5336,2.5351,2.5353,2.5359,2.5334,2.5374,2.5446,2.5454,2.5363,2.5362,2.5361,0,2.4901,2.4974,2.503,2.505,2.5101,2.5126,2.5148,2.5185,2.5212,2.525,2.5268,2.5311,2.5335,2.5368,2.5387,2.537,2.545,2.5431,2.5461,2.546,2.5477,2.5476,2.5553,2.5493,2.5493,2.5493,2.5492,0,2.4968,2.5015,2.5047,2.5081,2.5133,2.5152,2.5203,2.5224,2.5256,2.5294,2.5301,2.5336,2.5359,2.5397,2.5412,2.5463,2.5474,2.5484,2.5487,2.5483,2.5481,2.5498,2.5494,2.5495,2.5494,2.5494,2.5493,0,2.5018,2.5041,2.5102,2.5145,2.5156,2.5193,2.5228,2.5261,2.528,2.5327,2.5339,2.5369,2.5414,2.5436,2.5491,2.5501,2.5558,2.5559,2.5545,2.5547,2.5574,2.5571,2.5664,2.5677,2.5609,2.561,2.561,0,2.5059,2.5095,2.5141,2.5166,2.5189,2.5231,2.5258,2.5277,2.5305,2.535,2.5377,2.5422,2.5458,2.5529,2.5555,2.5597,2.5598,2.5628,2.5605,2.5599,2.5597,2.5595,2.5598,2.5632,2.5633,2.5633,2.5634,0,2.5128,2.5137,2.5177,2.522,2.5252,2.5287,2.5321,2.5342,2.5366,2.5397,2.5443,2.5471,2.5527,2.5571,2.5614,2.5636,2.5638,2.5641,2.565,2.5645,2.5635,2.564,2.5556,2.5639,2.5638,2.5638,2.5638,2.5637,2.5174,2.5206,2.5242,2.5286,2.5313,2.5345,2.5377,2.5399,2.5438,2.5485,2.5494,2.5542,2.5577,2.5635,2.5658,2.5695,2.5688,2.5701,2.5704,2.5707,2.5708,2.563,2.5703,2.5703,2.5702,2.5702,2.5702,0,2.5243,2.5266,2.5306,2.5353,2.5386,2.5386,2.5424,2.5451,2.5493,2.5526,2.5562,2.5613,2.5655,2.5683,2.5726,2.5749,2.5752,2.576,2.5758,2.5762,2.5712,2.57,2.5757,2.5757,2.5757,2.5757,2.5757,2.5757,2.5282,2.5335,2.5349,2.5414,2.5438,2.5485,2.5506,2.5534,2.556,2.5617,2.5652,2.567,2.5701,2.5745,2.5783,2.579,2.5805,2.5813,2.582,2.5772,2.5766,2.5761,2.5749,2.5816,2.5816,2.5867,2.5867,2.5868]}]]